Poughkeepsie, NY

7:20 PM EDT on May 26, 2017 (GMT -0400)
Dutchess County

Weather History for KPOU - December, 2013

Change the Weather History Date:

Thursday, December 5, 2013

  Actual Average Record
Temperature  
Mean Temperature 48 °F 35 °F  
Max Temperature 55 °F 44 °F 66 °F (2001)
Min Temperature 41 °F 26 °F 7 °F (1966)
Degree Days  
Heating Degree Days 17 30  
Month to date heating degree days 134 147  
Since 1 July heating degree days 1377 1425  
Cooling Degree Days 0 0  
Month to date cooling degree days 0 0  
Year to date cooling degree days 829 672  
Moisture  
Dew Point 47 °F    
Average Humidity 90    
Maximum Humidity 100    
Minimum Humidity 70    
Precipitation  
Precipitation 0.15 in 0.13 in 1.43 in (1962)
Month to date precipitation 0.16 0.62  
Year to date precipitation 36.74 43.62  
Sea Level Pressure  
Sea Level Pressure 30.01 in    
Wind  
Wind Speed 1 mph (South)    
Max Wind Speed 7 mph    
Max Gust Speed -    
Visibility 3 miles    
Events Fog , Rain    
T = Trace of Precipitation, MM = Missing Value Source: NWS Daily Summary

Daily Weather History Graph

Daily Weather History Graph

Search for Another Location

Airport or City:

Trip Planner

Search our weather history database for the weather conditions in past years. The results will help you decide how hot, cold, wet, or windy it might be!

Date:

Astronomy

Dec. 05, 2013 Rise Set
Actual Time 7:07 AM EST 4:25 PM EST
Civil Twilight 6:35 AM EST 4:56 PM EST
Nautical Twilight 6:01 AM EST 5:31 PM EST
Astronomical Twilight 5:27 AM EST 6:04 PM EST
Moon 9:24 AM EST (12/5) 7:44 PM EST (12/5)
Length of Visible Light 10h 20m
Length of Day
9h 18m
Waxing Crescent, 10% of the Moon is Illuminated
Dec 5
Waxing Crescent
Dec 9
First Quarter
Dec 17
Full
Dec 25
Last Quarter
Jan 1
New

Hourly Weather History & Observations

Time (EST) Temp. Windchill Dew Point Humidity Pressure Visibility Wind Dir Wind Speed Gust Speed Precip Events Conditions
12:37 AM 42.8 °F - 35.6 °F 76% 30.12 in 8.0 mi Calm Calm - N/A   Overcast
12:45 AM 42.8 °F - 33.8 °F 70% 30.12 in 8.0 mi Calm Calm - N/A   Overcast
12:53 AM 42.1 °F - 35.1 °F 76% 30.11 in 8.0 mi Calm Calm - N/A   Overcast
1:34 AM 42.8 °F - 35.6 °F 76% 30.13 in 8.0 mi Calm Calm - N/A   Overcast
1:53 AM 42.1 °F - 34.0 °F 73% 30.12 in 8.0 mi Calm Calm - N/A   Overcast
2:48 AM 42.8 °F - 33.8 °F 70% 30.12 in 8.0 mi Calm Calm - N/A   Overcast
2:53 AM 43.0 °F - 34.0 °F 71% 30.12 in 8.0 mi Calm Calm - N/A   Overcast
3:53 AM 43.0 °F - 35.1 °F 74% 30.10 in 7.0 mi Calm Calm - 0.00 in   Overcast
4:53 AM 42.1 °F - 39.0 °F 89% 30.09 in 5.0 mi Calm Calm - 0.00 in   Overcast
5:53 AM 42.1 °F 40.2 °F 39.9 °F 92% 30.08 in 4.0 mi East 3.5 mph - N/A   Overcast
6:48 AM 42.8 °F - 41.0 °F 93% 30.08 in 3.0 mi Calm Calm - N/A   Overcast
6:53 AM 43.0 °F - 41.0 °F 93% 30.08 in 3.0 mi Calm Calm - N/A   Overcast
7:40 AM 44.6 °F - 41.0 °F 87% 30.08 in 2.0 mi Calm Calm - N/A   Overcast
7:53 AM 44.1 °F - 41.0 °F 89% 30.07 in 2.5 mi Calm Calm - N/A   Overcast
8:22 AM 44.6 °F - 42.8 °F 93% 30.07 in 1.5 mi Calm Calm - N/A   Overcast
8:53 AM 45.0 °F - 42.1 °F 90% 30.07 in 1.8 mi Calm Calm - N/A   Overcast
9:07 AM 44.6 °F - 42.8 °F 93% 30.08 in 0.8 mi Calm Calm - 0.00 in Rain Light Rain
9:53 AM 46.0 °F - 44.1 °F 93% 30.07 in 0.5 mi Calm Calm - 0.00 in Fog Fog
10:53 AM 46.9 °F - 45.0 °F 93% 30.05 in 0.8 mi Calm Calm - N/A   Overcast
11:30 AM 48.2 °F - 46.4 °F 93% 30.04 in 1.0 mi WSW 3.5 mph - N/A   Overcast
11:53 AM 50.0 °F - 48.0 °F 93% 30.02 in 1.2 mi Calm Calm - N/A   Overcast
12:37 PM 51.8 °F - 48.2 °F 88% 30.00 in 2.0 mi Calm Calm - N/A   Overcast
12:53 PM 53.1 °F - 50.0 °F 89% 29.99 in 3.0 mi Calm Calm - N/A   Overcast
1:37 PM 55.4 °F - 51.8 °F 88% 29.98 in 7.0 mi South 4.6 mph - N/A   Overcast
1:53 PM 54.0 °F - 51.1 °F 90% 29.97 in 6.0 mi SSE 3.5 mph - N/A   Overcast
2:53 PM 55.0 °F - 51.1 °F 86% 29.97 in 5.0 mi Variable 6.9 mph - N/A   Overcast
3:42 PM 55.4 °F - 51.8 °F 88% 29.98 in 4.0 mi South 5.8 mph - N/A   Overcast
3:53 PM 55.0 °F - 51.1 °F 86% 29.97 in 3.0 mi Calm Calm - N/A   Overcast
4:53 PM 53.1 °F - 51.1 °F 93% 29.99 in 2.5 mi Calm Calm - 0.02 in Rain Light Rain
5:20 PM 53.6 °F - 51.8 °F 94% 30.00 in 1.8 mi Calm Calm - 0.02 in Rain Light Rain
5:32 PM 53.6 °F - 51.8 °F 94% 30.00 in 1.8 mi Calm Calm - 0.03 in Rain Light Rain
5:53 PM 53.1 °F - 51.1 °F 93% 29.98 in 1.8 mi SE 4.6 mph - 0.07 in Rain Light Rain
6:05 PM 53.6 °F - 51.8 °F 94% 29.97 in 1.8 mi SE 3.5 mph - 0.03 in Rain Light Rain
6:15 PM 53.6 °F - 51.8 °F 94% 29.98 in 2.5 mi Calm Calm - 0.04 in Rain Light Rain
6:38 PM 53.6 °F - 51.8 °F 94% 29.97 in 3.0 mi Calm Calm - 0.05 in Rain Light Rain
6:46 PM 53.6 °F - 51.8 °F 94% 29.97 in 3.0 mi Calm Calm - 0.05 in Rain Light Rain
6:53 PM 54.0 °F - 52.0 °F 93% 29.96 in 3.0 mi Calm Calm - 0.05 in Rain Light Rain
7:09 PM 51.8 °F - 51.8 °F 100% 29.96 in 1.8 mi Calm Calm - 0.00 in   Overcast
7:17 PM 51.8 °F - 50.0 °F 94% 29.96 in 0.5 mi Calm Calm - 0.00 in Fog Fog
7:25 PM 51.8 °F - 48.2 °F 88% 29.96 in 0.2 mi WSW 3.5 mph - 0.00 in Fog Fog
7:32 PM 51.8 °F - 50.0 °F 94% 29.96 in 0.5 mi Calm Calm - 0.00 in Fog Fog
7:44 PM 51.8 °F - 50.0 °F 94% 29.96 in 0.2 mi Calm Calm - 0.00 in Fog Fog
7:53 PM 51.1 °F - 50.0 °F 96% 29.95 in 0.2 mi Calm Calm - 0.00 in Fog Fog
8:00 PM 51.8 °F - 51.8 °F 100% 29.96 in 0.8 mi Calm Calm - N/A   Overcast
8:18 PM 51.8 °F - 51.8 °F 100% 29.96 in 2.0 mi Calm Calm - N/A   Overcast
8:50 PM 53.6 °F - 51.8 °F 94% 29.94 in 4.0 mi SSE 4.6 mph - 0.01 in Rain Light Rain
8:53 PM 54.0 °F - 52.0 °F 93% 29.94 in 4.0 mi SSE 4.6 mph - 0.01 in Rain Light Rain
9:43 PM 51.8 °F - 51.8 °F 100% 29.95 in 1.8 mi WNW 3.5 mph - 0.00 in Rain Light Rain
9:53 PM 52.0 °F - 51.1 °F 97% 29.94 in 1.2 mi Calm Calm - 0.00 in Rain Light Rain
10:03 PM 53.6 °F - 51.8 °F 94% 29.95 in 2.0 mi Calm Calm - 0.00 in   Overcast
10:53 PM 52.0 °F - 51.1 °F 97% 29.92 in 1.2 mi Calm Calm - 0.00 in   Overcast
11:03 PM 51.8 °F - 51.8 °F 100% 29.93 in 0.5 mi Calm Calm - N/A Fog Fog
11:17 PM 51.8 °F - 50.0 °F 94% 29.94 in 0.2 mi Calm Calm - N/A Fog Fog
11:32 PM 51.8 °F - 50.0 °F 94% 29.94 in 0.2 mi Calm Calm - N/A Fog Fog
11:41 PM 51.8 °F - 50.0 °F 94% 29.94 in 0.2 mi Calm Calm - N/A Fog Fog
11:53 PM 52.0 °F - 51.1 °F 97% 29.92 in 0.5 mi Calm Calm - N/A Fog Fog